TimeMDT,TemperatureF,Dew PointF,Humidity,Sea Level PressureIn,VisibilityMPH,Wind Direction,Wind SpeedMPH,Gust SpeedMPH,PrecipitationIn,Events,Conditions,WindDirDegrees,DateUTC
12:53 AM,39.9,26.1,58,29.94,10.0,Calm,Calm,-,N/A,,Clear,0,2013-06-23 06:53:00
1:53 AM,34.0,28.0,79,29.97,10.0,Calm,Calm,-,N/A,,Clear,0,2013-06-23 07:53:00
2:53 AM,33.1,26.1,75,29.97,10.0,North,8.1,-,N/A,,Clear,350,2013-06-23 08:53:00
3:53 AM,35.1,26.1,70,29.95,10.0,ENE,4.6,-,N/A,,Clear,70,2013-06-23 09:53:00
4:53 AM,30.0,23.0,75,29.96,10.0,Calm,Calm,-,N/A,,Clear,0,2013-06-23 10:53:00
5:53 AM,27.0,19.9,75,29.99,10.0,NNW,5.8,-,N/A,,Clear,340,2013-06-23 11:53:00
6:53 AM,37.0,24.1,59,29.93,10.0,Calm,Calm,-,N/A,,Clear,0,2013-06-23 12:53:00
7:53 AM,43.0,26.1,51,29.93,10.0,East,5.8,-,N/A,,Clear,80,2013-06-23 13:53:00
8:53 AM,48.0,28.9,48,29.94,10.0,SE,5.8,-,N/A,,Clear,130,2013-06-23 14:53:00
9:53 AM,55.9,28.9,36,29.91,10.0,South,5.8,-,N/A,,Clear,170,2013-06-23 15:53:00
10:53 AM,61.0,27.0,27,29.87,10.0,SSW,6.9,-,N/A,,Clear,200,2013-06-23 16:53:00
11:53 AM,64.9,26.1,23,29.86,10.0,South,8.1,19.6,N/A,,Clear,190,2013-06-23 17:53:00
12:53 PM,69.1,25.0,19,29.81,10.0,SE,9.2,-,N/A,,Clear,140,2013-06-23 18:53:00
1:53 PM,73.9,19.0,13,29.80,10.0,West,18.4,25.3,N/A,,Mostly Cloudy,270,2013-06-23 19:53:00
2:53 PM,75.9,21.0,13,29.77,10.0,West,16.1,24.2,N/A,,Clear,260,2013-06-23 20:53:00
3:53 PM,75.9,23.0,14,29.75,10.0,WNW,16.1,28.8,N/A,,Clear,290,2013-06-23 21:53:00
4:53 PM,75.9,24.1,15,29.75,10.0,West,11.5,24.2,N/A,,Clear,270,2013-06-23 22:53:00
5:53 PM,73.9,24.1,16,29.76,10.0,West,11.5,-,N/A,,Scattered Clouds,260,2013-06-23 23:53:00
6:53 PM,70.0,30.0,23,29.73,10.0,West,12.7,-,N/A,,Clear,270,2013-06-24 00:53:00
7:53 PM,68.0,30.9,25,29.72,10.0,WSW,8.1,-,N/A,,Clear,250,2013-06-24 01:53:00
8:53 PM,64.9,25.0,22,29.71,10.0,West,9.2,-,N/A,,Clear,280,2013-06-24 02:53:00
9:53 PM,60.1,27.0,28,29.71,10.0,Calm,Calm,-,N/A,,Clear,0,2013-06-24 03:53:00
10:53 PM,57.0,21.9,26,29.70,10.0,Calm,Calm,-,N/A,,Partly Cloudy,0,2013-06-24 04:53:00
11:53 PM,55.9,24.1,29,29.68,10.0,Calm,Calm,-,N/A,,Partly Cloudy,0,2013-06-24 05:53:00